Location: Angers
(47.4670°N, 0.5500°W)
Time: 06:29:04
(UTC+01:00)

ISS - Visible Passes

Search period start: 31 October 2020 00:00
Search period end: 10 November 2020 00:00
Orbit: 417 x 420 km, 51.6° (Epoch: 30 October)

Date Brightness Start Highest point End Pass type
(mag) Time Alt. Az. Time Alt. Az. Time Alt. Az.
31 Oct -3.2 05:57:52 42° NNW 05:58:06 43° N 06:01:21 10° ENE visible
01 Nov -1.4 05:12:05 23° NE 05:12:05 23° NE 05:13:33 10° ENE visible
01 Nov -2.9 06:45:02 16° WNW 06:47:27 40° N 06:50:39 10° ENE visible
02 Nov -2.9 05:59:13 37° NNW 05:59:33 38° N 06:02:45 10° ENE visible
03 Nov -1.3 05:13:25 22° NE 05:13:25 22° NE 05:14:53 10° ENE visible
03 Nov -3.3 06:46:22 16° WNW 06:48:52 53° NNE 06:52:10 10° E visible
04 Nov -3.1 06:00:34 41° NNW 06:01:00 44° N 06:04:15 10° E visible
05 Nov -1.4 05:14:48 23° ENE 05:14:48 23° ENE 05:16:21 10° ENE visible
05 Nov -3.8 06:47:45 18° WNW 06:50:10 88° SSW 06:53:32 10° ESE visible
06 Nov -3.7 06:02:00 61° NNW 06:02:23 68° NNE 06:05:44 10° ESE visible
07 Nov -1.4 05:16:19 24° E 05:16:19 24° E 05:17:51 10° E visible
07 Nov -3.1 06:49:16 19° W 06:51:19 40° SW 06:54:29 10° SE visible
08 Nov -3.7 06:03:38 61° SSW 06:03:38 61° SSW 06:06:56 10° SE visible
09 Nov -1.2 05:18:04 20° ESE 05:18:04 20° ESE 05:19:14 10° ESE visible
09 Nov -1.9 06:51:02 15° WSW 06:52:16 18° SW 06:54:36 10° S visible
